Погода Жангизтобе

Погода Жангизтобе : погода сейчас, прогноз погоды и архив. Всё, что Вы хотите узнать о погоде Жангизтобе!

Хотите узнать прогноз погоды Жангизтобе? Тогда Вам сюда: Погода Жангизтобе

Поиск расширенной информации на нашем сайте:

Другие новости

Новости СМИ2

Главная страница сайта

Новости сайта

02.10.2013

Напоминаем, что на нашем новом сайте вы можете получить высокодетализированные прогнозы погоды по пунктам России, СНГ и мира (включающие важные для авиации метеовеличины, такие как направление и скорость ветра, видимость, явления погоды, количество и форма облачности, нижняя и верхняя граница облачности), а также ознакомиться с разнообразными материалами по авиационной метеорологии и подборкой полезных ссылок на эту тему.

Сайт Метеоцентр.Азия посвящён разработке технологий оптимизации авиаметеорологического обслуживания, включая проектирование и перспективное создание нескольких автоматизированных авиаметеорологических систем:
- система выпуска высокодетальных прогностических карт явлений погоды для нижнего воздушного пространства по России и ближнему зарубежью;
- система верификации прогнозов TAF (выпускаемых синоптиками официальных АМСГ РФ и ближнего зарубежья) и AUTOTAF (выпускаемых сайтом Метеоцентр.Азия) - выявление ошибок, онлайн-сопоставление с фактической погодой METAR, автоматическое внесение коррективов в прогнозы при резком отклонении фактической погоды от прогноза, подсчёт оправдываемости прогнозов по элементам и в целом;
- система обработки, анализа и отображения авиаметеорологической информации для применения провайдерами метеорологической информации.

Рекомендуем: poselki-biznes-klassa купить

Погода Жангизтобе - сегодня

Время (UTC), дата Ветер
(°,м/с) 
Видим.   Явления Облачность Т
(°С)
Тd
(°С)
f(%) Тe
(°С)
Pmin
(гПа)
dP
(гПа)
Po
(мм)
O2
(г/м3)
Тmin Tmax R s Состояние
почвы
18 24.06.17 170 (Ю) н/о  зарница{гроза, ливн. осадки}  6/4 1000 м средняя 
[Sc|Ac lent]
+22.9 +15 61 +33  1003.2  1.7  715  262    +3.6     
21 24.06.17 180 (Ю) н/о    4/3 1000 м верхняя 
[Sc diur, vesp|Ci fib]
+18 +13.1 73 +26  1005.3  1.1  715  268           
00 25.06.17 200 (Ю) 20000 м    9/0 средняя, верхняя 
[Ac lent|Ci fib]
+18.6 +13.6 73 +26  1007.3  717  268           
03 25.06.17 240 (ЮЗ) 20000 м    6/0 средняя 
[Ac und]
+24.1 +11.6 45 +28  1007.1  0.7  717  263           
06 25.06.17 270 (З) 20000 м    4/3 1000 м верхняя 
[Cu hum|Ci fib]
+27.2 +9.7 33 +29  1006.7  0.1  717  261  +17.9    0.0     
09 25.06.17 270 (З) 20000 м  позёмок  4/4 1000 м 
+29.4 +9.7 29 +29    -0.7             
12 25.06.17 300 (СЗ) 20000 м    9/9 1000 м 
[Sc]
+28.7 +10.3 32 +31  1005.5  -0.2  717  259           
15 25.06.17 290 (З) 20000 м    9/9 1000 м кучево-дожд. 
[Cb calv]
+26.1 +13 44 +33  1006.9  718  261    +30.6       
18 25.06.17 200 (Ю) н/о  {гроза, ливн. осадки}  8/8 1000 м кучево-дожд. 
[Cb calv]
+19 +17.2 89 +34  1008.7  0.6  718  267    +30.6       
21 25.06.17 тихо ()   н/о  {ливн. осадки}  9/9 1000 м кучево-дожд. 
[Cb calv]
+18 +16.7 92 +31  1009.7  0.8  719  268           
00 26.06.17 тихо ()   20000 м  {ливн. осадки}  6/0 средняя, верхняя 
[Ac trans|Ci fib]
+16.9 +15.4 91 +27  1011  719  270           
03 26.06.17 060 (СВ) 20000 м    6/6 1000 м 
[Cu hum]
+20.9 +16 74 +33  1010.8  0.5  720  266           
06 26.06.17 300 (СЗ) 20000 м    8/8 1000 м 
[Cu med, cong]
+24.8 +15.5 56 +36  1009.8  -0.3  719  262  +16.6       
09 26.06.17 300 (СЗ) 20000 м    9/9 1000 м 
[Cu med, cong]
+28.3 +14.1 42 +37  1007.9  -1.3  719  259           
12 26.06.17 060 (СВ) 20000 м    6/6 1000 м 
[Cu hum]
+27.9 +12.4 38 +33  1007.1  -0.8  718  260           
15 26.06.17 080 (В) 20000 м    3/3 1000 м 
[Sc diur, vesp]
+24.1 +15.3 58 +35  1008.1  0.4  718  263    +29       
18 26.06.17 190 (Ю) н/о    ясно 
+20.8 +14.6 68 +30  1009.1  0.3  718  266    +29       
21 26.06.17 210 (ЮЗ) н/о    ясно 
+18.3 +12.7 70 +25  1008.6  -0.9  718  268           
00 27.06.17 180 (Ю) 20000 м    4/0 верхняя 
[Ci ing]
+19.3 +13.3 68 +27  1008.4  718  267           
03 27.06.17 190 (Ю) 20000 м    3/0 верхняя 
[Ci fib]
+25.3 +14.2 50 +34  1007.5  0.2  718  262           
06 27.06.17 180 (Ю) 20000 м    3/1 1000 м верхняя 
[Cu med, cong|Ci fib]
+29.1 +11.7 34 +34  1006.2  -0.7  717  259  +18.2         
09 27.06.17 200 (Ю) 20000 м    3/3 1000 м 
[Cu med, cong]
+31.4 +7 22 +31  1004.8  -1  717  258           
12 27.06.17 050 (СВ) 20000 м    4/0 верхняя 
[Sc diur, vesp|Ci]
+32 +9.5 25 +33  1003.8  -0.9  716  257           
15 27.06.17 300 (СЗ) 20000 м    6/6 1000 м 
[Sc]
+28.3 +11.2 35 +32  1005.4  717  260    +33       
18 27.06.17 300 (СЗ) н/о  зарница  9/9 1000 м 
[Sc]
+21.4 +16 71 +33  1009.3  2.7  719  265    +33       
Время (UTC), дата Ветер
(°,м/с) 
Видим.   Явления Облачность Т
(°С)
Тd
(°С)
f(%) Тe
(°С)
Pmin
(гПа)
dP
(гПа)
Po
(мм)
O2
(г/м3)
Тmin Tmax R s Состояние
почвы

Для получения пояснительной информации подведите курсор к названию столбца.

ПОГОДА Жангизтобе - архив

Всё, что Вы хотите узнать о погоде Жангизтобе - удобно и подробно!

Выберите нужную дату (начиная с 1 января 2015* года) и нажмите кнопку "Найти".
Будут отображены архивные сводки погоды по пункту Жангизтобе, начиная с указанной даты.


Отображать данные в формате CSV (для использования в таблицах Excel)


Внимание! Наш архив погоды предназначен исключительно для личного некоммерческого использования в познавательных целях. Если Вам необходимы официальные справки о состоянии погоды (для производственных, юридических, коммерческих и т.п. целей), обращайтесь в органы Росгидромета.

*Примечание: данная дата относится к архиву по метеостанциям СССР (Россия, СНГ, Балтия).
Архив по метеостанциям Зарубежной Европы и Азии (кроме Китая) хранится 10 дней, по другим регионам земного шара (Китай, Африка, Америка, Австралия, Океания) - 1 день.

Жангизтобе - район местоположения метеостанции


Название, широта, долгота, высота метеостанции:
Жангизтобе 49.2°ш. 81.2°д. 455 м над ур. моря [Казахстан]

Дополнительная информация

В oтличие oт бoльшинства пoгoдных сайтoв мы публикуем пoдрoбную метеoинфoрмацию в детальнoм прoфессиoнальнoм фoрмате.

Характеристики температуры и влажнoсти вoздуха измеряются на высoте 2 м в тени вдали oт зданий и деревьев.
Скoрoсть ветра измеряется на высoте 10 м (на урoвне рoста челoвека скoрoсть ветра ниже в 1.5-2 раза). Если метеoстанция нахoдится в гoрoде или в лесу, тo скoрoсть ветра занижена на 2-4 м/с пo сравнению с oткрытым местoм. Скoрoсть ветра над акватoриями крупных рек и oзёр, а также на вершинах хoлмoв на 2-5 м/с выше, чем в oбычных услoвиях.
Атмoсфернoе давление в разных тoчках местнoсти мoжет значительнo oтличаться oт давления на метеoстанции, в зависимoсти oт услoвий рельефа (при пoдъёме на 10 м давление пoнижается примернo на 1 мм рт.ст.).